Lexington, KY

6:07 AM EDT on September 23, 2017 (GMT -0400)
Blue Grass

Weather History for KLEX - January, 2013

Change the Weather History Date:

Tuesday, January 29, 2013

  Actual Average Record
Temperature  
Mean Temperature 58 °F 34 °F  
Max Temperature 67 °F 42 °F 69 °F (1975)
Min Temperature 49 °F 25 °F -7 °F (1977)
Degree Days  
Heating Degree Days 7 32  
Month to date heating degree days 850 928  
Since 1 July heating degree days 2626 2716  
Cooling Degree Days 0 0  
Month to date cooling degree days 0 0  
Year to date cooling degree days 0 0  
Growing Degree Days 7 (Base 50)    
Moisture  
Dew Point 53 °F    
Average Humidity 84    
Maximum Humidity 100    
Minimum Humidity 68    
Precipitation  
Precipitation 0.03 in 0.10 in 2.32 in (1939)
Month to date precipitation 3.45 2.97  
Year to date precipitation 3.45 2.97  
Snow  
Snow 0.00 in 0.20 in 4.00 in (1909)
Month to date snowfall 0.5 3.6  
Since 1 July snowfall 3.9 6.4  
Snow Depth 0.00 in    
Sea Level Pressure  
Sea Level Pressure 29.96 in    
Wind  
Wind Speed 16 mph (South)    
Max Wind Speed 25 mph    
Max Gust Speed 35 mph    
Visibility 10 miles    
Events      
T = Trace of Precipitation, MM = Missing Value Source: NWS Daily Summary

Daily Weather History Graph

Daily Weather History Graph

Search for Another Location

Airport or City:

Trip Planner

Search our weather history database for the weather conditions in past years. The results will help you decide how hot, cold, wet, or windy it might be!

Date:

Astronomy

Jan. 29, 2013 Rise Set
Actual Time 7:45 AM EST 5:58 PM EST
Civil Twilight 7:17 AM EST 6:26 PM EST
Nautical Twilight 6:45 AM EST 6:58 PM EST
Astronomical Twilight 6:14 AM EST 7:29 PM EST
Moon 8:50 PM EST (1/29) 8:45 AM EST (1/29)
Length of Visible Light 11h 09m
Length of Day
10h 13m
Waning Gibbous, 94% of the Moon is Illuminated
Jan 29
Waning Gibbous
Feb 3
Last Quarter
Feb 10
New
Feb 17
First Quarter
Feb 25
Full

Hourly Weather History & Observations

Time (EST) Temp. Dew Point Humidity Pressure Visibility Wind Dir Wind Speed Gust Speed Precip Events Conditions
12:40 AM 53.6 °F 50.0 °F 88% 30.11 in 10.0 mi SSW 10.4 mph - N/A   Overcast
12:54 AM 53.1 °F 50.0 °F 89% 30.12 in 10.0 mi SSW 11.5 mph - 0.01 in   Overcast
1:54 AM 54.0 °F 50.0 °F 86% 30.10 in 10.0 mi SSW 10.4 mph - N/A   Overcast
2:54 AM 53.1 °F 50.0 °F 89% 30.09 in 10.0 mi South 9.2 mph - N/A   Mostly Cloudy
3:54 AM 52.0 °F 48.9 °F 89% 30.08 in 10.0 mi South 10.4 mph - N/A   Mostly Cloudy
4:54 AM 52.0 °F 48.9 °F 89% 30.06 in 10.0 mi South 13.8 mph - N/A   Mostly Cloudy
5:54 AM 48.9 °F 48.0 °F 97% 30.05 in 10.0 mi South 9.2 mph - N/A   Clear
6:54 AM 51.1 °F 48.0 °F 89% 30.04 in 10.0 mi South 13.8 mph - N/A   Clear
7:54 AM 52.0 °F 48.9 °F 89% 30.05 in 10.0 mi South 13.8 mph - N/A   Mostly Cloudy
8:54 AM 53.1 °F 48.9 °F 86% 30.05 in 10.0 mi South 13.8 mph - 0.01 in   Partly Cloudy
9:54 AM 57.0 °F 51.1 °F 81% 30.05 in 10.0 mi South 16.1 mph 25.3 mph N/A   Mostly Cloudy
10:54 AM 59.0 °F 53.1 °F 81% 30.05 in 10.0 mi South 18.4 mph 26.5 mph N/A   Partly Cloudy
11:15 AM 60.8 °F 53.6 °F 77% 30.04 in 10.0 mi South 15.0 mph 24.2 mph N/A   Mostly Cloudy
11:54 AM 62.1 °F 55.0 °F 78% 30.00 in 10.0 mi South 18.4 mph - N/A   Mostly Cloudy
12:13 PM 62.6 °F 55.4 °F 77% 30.00 in 10.0 mi South 21.9 mph 27.6 mph N/A   Scattered Clouds
12:54 PM 64.0 °F 55.0 °F 73% 29.97 in 10.0 mi SSW 23.0 mph 31.1 mph N/A   Partly Cloudy
1:36 PM 64.4 °F 55.4 °F 73% 29.97 in 10.0 mi SSW 17.3 mph - 0.01 in   Overcast
1:50 PM 64.4 °F 55.4 °F 73% 29.96 in 10.0 mi SSW 17.3 mph 24.2 mph 0.01 in   Mostly Cloudy
1:54 PM 66.0 °F 55.9 °F 70% 29.94 in 10.0 mi South 16.1 mph 24.2 mph 0.01 in   Mostly Cloudy
2:54 PM 66.0 °F 55.9 °F 70% 29.91 in 10.0 mi South 17.3 mph 24.2 mph N/A   Scattered Clouds
3:54 PM 66.0 °F 55.9 °F 70% 29.86 in 10.0 mi South 19.6 mph 29.9 mph N/A   Clear
4:54 PM 64.9 °F 55.9 °F 73% 29.85 in 10.0 mi South 15.0 mph - N/A   Partly Cloudy
5:54 PM 64.9 °F 55.9 °F 73% 29.85 in 10.0 mi South 16.1 mph 25.3 mph N/A   Scattered Clouds
6:54 PM 64.0 °F 57.0 °F 78% 29.84 in 10.0 mi South 15.0 mph - N/A   Overcast
7:54 PM 64.0 °F 57.0 °F 78% 29.83 in 10.0 mi South 20.7 mph 26.5 mph N/A   Overcast
8:54 PM 62.1 °F 57.0 °F 84% 29.80 in 10.0 mi South 17.3 mph 26.5 mph N/A   Clear
9:54 PM 62.1 °F 57.0 °F 84% 29.76 in 10.0 mi South 20.7 mph 29.9 mph N/A   Clear
10:54 PM 62.1 °F 55.9 °F 80% 29.72 in 10.0 mi South 21.9 mph 28.8 mph N/A   Clear
11:54 PM 63.0 °F 57.0 °F 81% 29.67 in 10.0 mi South 24.2 mph 29.9 mph N/A   Clear